DLH1331 GMMN-EDDF

Flight info

Callsign DLH1331
Flight time N/A
Altitude 38000
Route TOLSI UG5 KORIS L27 MAR DCT ALCOL N871 TOPTU DCT TOU DCT GAI DCT MEN DCT NINUN DCT LATAM DCT ETREK DCT LTP DCT SOPLO DCT OMASI DCT KINNI DCT SOSAL DCT KORED DCT BERSU N871 DITON/N0434F390 DCT LADOL/N0430F380 T163 EMPAX EMPAX5B
Aircraft A20N/M-SDE2E3FGIJ1LORWXYZ/HB1

Departure

Time 2026-05-07 17:30
Airport Mohammed V International Airport (GMMN)

Arrival

Time N/A
Airport Frankfurt Main Airport (EDDF)
Time Latitude Longitude Altitude Speed Heading
2026-05-07 16:46 33.37542 -7.58489 648 ft 0 kts 158°
2026-05-07 17:12 33.37541 -7.58489 648 ft 1 kts 158°
2026-05-07 17:12 33.37534 -7.58480 649 ft 2 kts 127°
2026-05-07 17:12 33.37524 -7.58444 648 ft 8 kts 110°
2026-05-07 17:13 33.37457 -7.58393 648 ft 15 kts 162°
2026-05-07 17:13 33.37341 -7.58352 648 ft 19 kts 166°
2026-05-07 17:13 33.37205 -7.58307 649 ft 22 kts 163°
2026-05-07 17:13 33.37061 -7.58255 650 ft 19 kts 163°
2026-05-07 17:14 33.36952 -7.58240 650 ft 14 kts 216°
2026-05-07 17:14 33.36917 -7.58358 650 ft 16 kts 255°
2026-05-07 17:14 33.36859 -7.58459 650 ft 16 kts 184°
2026-05-07 17:14 33.36748 -7.58427 651 ft 18 kts 163°
2026-05-07 17:15 33.36622 -7.58383 651 ft 20 kts 164°
2026-05-07 17:15 33.36480 -7.58335 653 ft 22 kts 164°
2026-05-07 17:15 33.36328 -7.58283 652 ft 19 kts 164°
2026-05-07 17:15 33.36267 -7.58262 653 ft 0 kts 164°
2026-05-07 17:16 33.36263 -7.58260 653 ft 2 kts 164°
2026-05-07 17:16 33.36242 -7.58253 655 ft 5 kts 164°
2026-05-07 17:16 33.36202 -7.58240 653 ft 7 kts 164°
2026-05-07 17:16 33.36143 -7.58220 655 ft 10 kts 164°
2026-05-07 17:17 33.36067 -7.58194 655 ft 13 kts 164°
2026-05-07 17:17 33.35972 -7.58162 654 ft 16 kts 164°
2026-05-07 17:17 33.35859 -7.58123 657 ft 18 kts 164°
2026-05-07 17:17 33.35748 -7.58085 656 ft 14 kts 163°
2026-05-07 17:18 33.35658 -7.58054 655 ft 5 kts 163°
2026-05-07 17:18 33.35613 -7.58044 658 ft 8 kts 185°
2026-05-07 17:18 33.35573 -7.58093 657 ft 10 kts 249°
2026-05-07 17:18 33.35554 -7.58174 658 ft 9 kts 256°
2026-05-07 17:19 33.35552 -7.58182 657 ft 0 kts 256°
2026-05-07 17:27 33.35552 -7.58186 655 ft 2 kts 256°
2026-05-07 17:27 33.35540 -7.58240 656 ft 12 kts 255°
2026-05-07 17:27 33.35536 -7.58366 656 ft 14 kts 308°
2026-05-07 17:28 33.35552 -7.58376 656 ft 0 kts 341°
2026-05-07 17:29 33.35553 -7.58377 656 ft 4 kts 341°
2026-05-07 17:29 33.35814 -7.58466 652 ft 73 kts 343°
2026-05-07 17:30 33.36484 -7.58693 655 ft 125 kts 344°
2026-05-07 17:30 33.37462 -7.59012 725 ft 160 kts 346°
2026-05-07 17:30 33.38545 -7.59403 1268 ft 163 kts 343°
2026-05-07 17:30 33.39616 -7.59808 2003 ft 159 kts 349°
2026-05-07 17:31 33.40728 -7.59928 2484 ft 166 kts
2026-05-07 17:31 33.41945 -7.59860 2809 ft 184 kts
2026-05-07 17:31 33.43300 -7.59545 3077 ft 214 kts 19°
2026-05-07 17:31 33.44668 -7.58652 3642 ft 233 kts 35°
2026-05-07 17:32 33.45906 -7.57340 4393 ft 246 kts 44°
2026-05-07 17:32 33.47102 -7.55775 5058 ft 261 kts 44°
2026-05-07 17:32 33.48658 -7.54555 5654 ft 275 kts 23°
2026-05-07 17:32 33.50469 -7.53681 6402 ft 286 kts 20°
2026-05-07 17:33 33.52376 -7.52829 7117 ft 295 kts 19°
2026-05-07 17:33 33.54283 -7.51975 8004 ft 298 kts 20°
2026-05-07 17:33 33.56270 -7.51067 8823 ft 305 kts 20°
2026-05-07 17:33 33.58231 -7.50153 9679 ft 310 kts 20°
2026-05-07 17:34 33.60265 -7.49197 10319 ft 322 kts 20°
2026-05-07 17:34 33.62427 -7.48178 10595 ft 346 kts 20°
2026-05-07 17:34 33.64737 -7.47088 10913 ft 365 kts 20°
2026-05-07 17:34 33.67118 -7.45961 11611 ft 371 kts 20°
2026-05-07 17:35 33.69530 -7.44818 12358 ft 376 kts 20°
2026-05-07 17:35 33.71970 -7.43663 12784 ft 380 kts 20°
2026-05-07 17:35 33.74429 -7.42498 12920 ft 382 kts 20°
2026-05-07 17:35 33.76987 -7.41287 12942 ft 407 kts 20°
2026-05-07 17:36 33.79696 -7.40006 12941 ft 430 kts 20°
2026-05-07 17:36 33.82551 -7.38653 12941 ft 448 kts 20°
2026-05-07 17:36 33.85443 -7.37279 12940 ft 443 kts 20°
2026-05-07 17:36 33.88294 -7.35923 12942 ft 441 kts 20°
2026-05-07 17:37 33.91154 -7.34562 12950 ft 442 kts 20°
2026-05-07 17:37 33.94007 -7.33204 12944 ft 441 kts 20°
2026-05-07 17:37 33.96868 -7.31842 12964 ft 443 kts 20°
2026-05-07 17:37 33.99750 -7.30469 13541 ft 445 kts 20°
2026-05-07 17:38 34.02608 -7.29106 14365 ft 441 kts 20°
2026-05-07 17:38 34.05467 -7.27740 15059 ft 442 kts 20°
2026-05-07 17:38 34.08346 -7.26364 15622 ft 446 kts 20°
2026-05-07 17:38 34.11236 -7.24982 16260 ft 448 kts 19°
2026-05-07 17:39 34.14145 -7.23590 16743 ft 455 kts 19°
2026-05-07 17:39 34.17132 -7.22162 17033 ft 465 kts 19°
2026-05-07 17:39 34.20140 -7.20720 17664 ft 465 kts 19°
2026-05-07 17:39 34.23146 -7.19276 18346 ft 465 kts 19°
2026-05-07 17:40 34.26148 -7.17834 18951 ft 464 kts 18°
2026-05-07 17:40 34.29150 -7.16392 19615 ft 463 kts 18°
2026-05-07 17:40 34.32144 -7.14954 20248 ft 463 kts 18°
2026-05-07 17:40 34.35151 -7.13509 20662 ft 470 kts 18°
2026-05-07 17:41 34.38225 -7.12034 20807 ft 481 kts 18°
2026-05-07 17:41 34.41377 -7.10520 20937 ft 493 kts 18°
2026-05-07 17:41 34.44588 -7.08974 21189 ft 499 kts 18°
2026-05-07 17:41 34.47819 -7.07413 21680 ft 500 kts 18°
2026-05-07 17:42 34.51050 -7.05851 22225 ft 500 kts 18°
2026-05-07 17:42 34.54282 -7.04288 22815 ft 500 kts 18°
2026-05-07 17:42 34.57506 -7.02728 23381 ft 499 kts 18°
2026-05-07 17:42 34.60711 -7.01095 23882 ft 501 kts 22°
2026-05-07 17:43 34.63818 -6.99182 24411 ft 499 kts 24°
2026-05-07 17:43 34.66866 -6.97313 24932 ft 498 kts 23°
2026-05-07 17:43 34.69988 -6.95406 25120 ft 505 kts 23°
2026-05-07 17:43 34.73150 -6.93474 25223 ft 514 kts 23°
2026-05-07 17:44 34.76367 -6.91506 25319 ft 521 kts 23°
2026-05-07 17:44 34.79631 -6.89502 25488 ft 526 kts 24°
2026-05-07 17:44 34.82937 -6.87468 25870 ft 526 kts 24°
2026-05-07 17:44 34.86156 -6.85484 26264 ft 525 kts 24°
2026-05-07 17:45 34.89407 -6.83479 26661 ft 522 kts 23°
2026-05-07 17:45 34.92633 -6.81488 27125 ft 520 kts 23°
2026-05-07 17:45 34.95857 -6.79498 27513 ft 519 kts 23°
2026-05-07 17:45 34.99077 -6.77510 27895 ft 518 kts 23°
2026-05-07 17:46 35.02286 -6.75527 28267 ft 517 kts 23°
2026-05-07 17:46 35.05491 -6.73544 28636 ft 516 kts 23°
2026-05-07 17:46 35.08687 -6.71564 29014 ft 515 kts 23°
2026-05-07 17:46 35.11885 -6.69582 29376 ft 514 kts 23°
2026-05-07 17:47 35.14989 -6.67657 29719 ft 513 kts 23°
2026-05-07 17:47 35.18168 -6.65682 30082 ft 512 kts 23°
2026-05-07 17:47 35.21343 -6.63709 30413 ft 511 kts 22°
2026-05-07 17:47 35.24513 -6.61737 30658 ft 513 kts 22°
2026-05-07 17:48 35.27705 -6.59752 30807 ft 516 kts 22°
2026-05-07 17:48 35.30901 -6.57761 31049 ft 515 kts 22°
2026-05-07 17:48 35.34093 -6.55769 31344 ft 514 kts 22°
2026-05-07 17:48 35.37277 -6.53781 31604 ft 514 kts 22°
2026-05-07 17:49 35.40460 -6.51792 31868 ft 513 kts 22°
2026-05-07 17:49 35.43636 -6.49805 32134 ft 512 kts 22°
2026-05-07 17:49 35.46807 -6.47805 32395 ft 512 kts 22°
2026-05-07 17:49 35.49949 -6.45763 32655 ft 511 kts 23°
2026-05-07 17:50 35.53040 -6.43731 32949 ft 510 kts 22°
2026-05-07 17:50 35.56166 -6.41678 33172 ft 509 kts 22°
2026-05-07 17:50 35.59291 -6.39629 33426 ft 509 kts 22°
2026-05-07 17:50 35.62413 -6.37585 33633 ft 509 kts 22°
2026-05-07 17:51 35.65539 -6.35540 33875 ft 508 kts 22°
2026-05-07 17:51 35.68658 -6.33498 34076 ft 508 kts 22°
2026-05-07 17:51 35.71815 -6.31430 34273 ft 507 kts 22°
2026-05-07 17:51 35.74932 -6.29387 34471 ft 507 kts 22°
2026-05-07 17:52 35.78001 -6.27383 34654 ft 506 kts 21°
2026-05-07 17:52 35.81108 -6.25360 34836 ft 506 kts 21°
2026-05-07 17:52 35.84223 -6.23331 35020 ft 505 kts 21°
2026-05-07 17:52 35.87364 -6.21297 35208 ft 505 kts 21°
2026-05-07 17:53 35.90470 -6.19293 35391 ft 504 kts 21°
2026-05-07 17:53 35.93572 -6.17290 35563 ft 504 kts 21°
2026-05-07 17:53 35.96673 -6.15285 35727 ft 503 kts 21°
2026-05-07 17:53 35.99728 -6.13305 35991 ft 500 kts 21°
2026-05-07 17:54 36.02799 -6.11310 36306 ft 497 kts 21°
2026-05-07 17:54 36.05889 -6.09302 36604 ft 494 kts 21°
2026-05-07 17:54 36.08877 -6.07358 36897 ft 490 kts 21°
2026-05-07 17:54 36.11888 -6.05398 37251 ft 487 kts 20°
2026-05-07 17:55 36.14873 -6.03453 37568 ft 484 kts 20°
2026-05-07 17:55 36.17841 -6.01519 37859 ft 481 kts 20°
2026-05-07 17:55 36.23762 -5.97533 37930 ft 493 kts 28°
2026-05-07 17:56 36.26461 -5.94838 37934 ft 505 kts 38°
2026-05-07 17:56 36.28949 -5.91729 37930 ft 511 kts 41°
2026-05-07 17:56 36.33837 -5.85291 37925 ft 513 kts 41°
2026-05-07 17:57 36.37961 -5.80001 37922 ft 514 kts 40°
2026-05-07 17:57 36.43829 -5.72602 37920 ft 514 kts 40°
2026-05-07 17:58 36.48834 -5.66297 37922 ft 512 kts 39°
2026-05-07 17:58 36.53834 -5.59988 37920 ft 512 kts 39°
2026-05-07 17:59 36.58830 -5.53670 37924 ft 512 kts 40°
2026-05-07 17:59 36.63827 -5.47338 37921 ft 514 kts 40°
2026-05-07 18:00 36.68837 -5.40978 37921 ft 514 kts 40°
2026-05-07 18:00 36.73834 -5.34618 37933 ft 513 kts 40°
2026-05-07 18:01 36.78816 -5.28266 37911 ft 512 kts 40°
2026-05-07 18:01 36.83796 -5.21907 37910 ft 512 kts 40°
2026-05-07 18:02 36.91268 -5.12340 37908 ft 513 kts 40°
2026-05-07 18:03 36.96248 -5.05947 37904 ft 513 kts 40°
2026-05-07 18:03 37.01195 -4.99585 37903 ft 513 kts 40°
2026-05-07 18:04 37.06320 -4.93455 37898 ft 501 kts 28°
2026-05-07 18:04 37.09265 -4.91260 37897 ft 487 kts 16°
2026-05-07 18:04 37.12394 -4.89720 37897 ft 481 kts 11°
2026-05-07 18:05 37.18711 -4.86945 37897 ft 482 kts 12°
2026-05-07 18:05 37.24969 -4.83858 37890 ft 484 kts 14°
2026-05-07 18:06 37.31198 -4.80614 37891 ft 485 kts 14°
2026-05-07 18:06 37.37430 -4.77340 37884 ft 485 kts 14°
2026-05-07 18:07 37.43652 -4.74068 37880 ft 484 kts 14°
2026-05-07 18:07 37.49876 -4.70795 37881 ft 485 kts 14°
2026-05-07 18:08 37.56104 -4.67513 37877 ft 485 kts 14°
2026-05-07 18:08 37.62320 -4.64230 37876 ft 485 kts 14°
2026-05-07 18:09 37.68552 -4.60934 37871 ft 486 kts 14°
2026-05-07 18:09 37.74779 -4.57634 37864 ft 485 kts 14°
2026-05-07 18:10 37.80989 -4.54335 37867 ft 483 kts 14°
2026-05-07 18:10 37.87196 -4.51036 37897 ft 483 kts 14°
2026-05-07 18:11 37.93389 -4.47736 37862 ft 483 kts 14°
2026-05-07 18:11 37.99588 -4.44426 37862 ft 483 kts 14°
2026-05-07 18:12 38.05785 -4.41112 37866 ft 484 kts 14°
2026-05-07 18:12 38.11978 -4.37793 37894 ft 483 kts 14°
2026-05-07 18:13 38.18170 -4.34468 37867 ft 483 kts 14°
2026-05-07 18:13 38.24313 -4.31164 37869 ft 483 kts 15°
2026-05-07 18:14 38.30494 -4.27834 37870 ft 483 kts 15°
2026-05-07 18:14 38.36683 -4.24493 37874 ft 483 kts 15°
2026-05-07 18:15 38.42862 -4.21151 37872 ft 483 kts 15°
2026-05-07 18:15 38.49051 -4.17798 37874 ft 483 kts 15°
2026-05-07 18:16 38.55236 -4.14439 37873 ft 483 kts 15°
2026-05-07 18:16 38.60376 -4.11644 37878 ft 482 kts 15°
2026-05-07 18:17 38.66544 -4.08284 37876 ft 482 kts 15°
2026-05-07 18:17 38.72719 -4.04914 37882 ft 482 kts 15°
2026-05-07 18:18 38.78893 -4.01538 37881 ft 482 kts 15°
2026-05-07 18:18 38.85064 -3.98158 37881 ft 482 kts 15°
2026-05-07 18:19 38.91217 -3.94781 37883 ft 482 kts 15°
2026-05-07 18:19 38.97377 -3.91394 37885 ft 482 kts 15°
2026-05-07 18:20 39.03543 -3.87997 37885 ft 482 kts 15°
2026-05-07 18:20 39.09689 -3.84604 37889 ft 480 kts 15°
2026-05-07 18:21 39.15826 -3.81209 37899 ft 480 kts 15°
2026-05-07 18:21 39.21951 -3.77816 37900 ft 480 kts 15°
2026-05-07 18:22 39.28083 -3.74411 37906 ft 479 kts 15°
2026-05-07 18:22 39.34231 -3.70995 37905 ft 483 kts 15°
2026-05-07 18:23 39.40395 -3.67557 37900 ft 482 kts 15°
2026-05-07 18:23 39.46554 -3.64116 37914 ft 482 kts 15°
2026-05-07 18:24 39.52713 -3.60671 37946 ft 482 kts 15°
2026-05-07 18:24 39.58888 -3.57213 37913 ft 483 kts 16°
2026-05-07 18:25 39.65052 -3.53749 37913 ft 483 kts 16°
2026-05-07 18:25 39.71219 -3.50279 37920 ft 483 kts 16°
2026-05-07 18:26 39.77382 -3.46767 37911 ft 486 kts 20°
2026-05-07 18:26 39.83161 -3.41982 37911 ft 494 kts 26°
2026-05-07 18:27 39.88907 -3.37101 37921 ft 493 kts 26°
2026-05-07 18:27 39.94641 -3.32191 37927 ft 494 kts 26°
2026-05-07 18:28 40.00373 -3.27252 37932 ft 492 kts 27°
2026-05-07 18:28 40.06061 -3.22337 37929 ft 491 kts 27°
2026-05-07 18:29 40.11755 -3.17409 37933 ft 491 kts 27°
2026-05-07 18:29 40.17445 -3.12473 37926 ft 491 kts 27°
2026-05-07 18:30 40.23101 -3.07558 37927 ft 490 kts 27°
2026-05-07 18:30 40.28751 -3.02637 37932 ft 485 kts 28°
2026-05-07 18:31 40.34369 -2.97734 37930 ft 486 kts 28°
2026-05-07 18:31 40.39999 -2.92811 37929 ft 486 kts 28°
2026-05-07 18:32 40.45623 -2.87884 37943 ft 486 kts 28°
2026-05-07 18:32 40.51233 -2.82958 37936 ft 485 kts 28°
2026-05-07 18:33 40.56842 -2.78022 37935 ft 485 kts 28°
2026-05-07 18:33 40.62453 -2.73074 37928 ft 485 kts 28°
2026-05-07 18:34 40.68059 -2.68122 37949 ft 485 kts 28°
2026-05-07 18:34 40.73686 -2.63143 37941 ft 488 kts 29°
2026-05-07 18:35 40.79310 -2.58152 37950 ft 487 kts 29°
2026-05-07 18:35 40.84934 -2.53151 37936 ft 487 kts 29°
2026-05-07 18:36 40.90557 -2.48146 37939 ft 488 kts 29°
2026-05-07 18:36 40.96181 -2.43126 37949 ft 488 kts 29°
2026-05-07 18:37 41.01792 -2.38060 37945 ft 490 kts 33°
2026-05-07 18:37 41.06990 -2.32166 37948 ft 490 kts 33°
2026-05-07 18:38 41.12441 -2.26734 37960 ft 493 kts 33°
2026-05-07 18:38 41.17860 -2.21127 37959 ft 494 kts 34°
2026-05-07 18:39 41.23191 -2.15462 37959 ft 494 kts 35°
2026-05-07 18:39 41.28547 -2.09735 37960 ft 494 kts 35°
2026-05-07 18:40 41.33727 -2.03693 37982 ft 496 kts 39°
2026-05-07 18:40 41.38817 -1.97494 37956 ft 496 kts 39°
2026-05-07 18:41 41.43548 -1.90771 37958 ft 498 kts 45°
2026-05-07 18:41 41.48208 -1.83905 37963 ft 500 kts 45°
2026-05-07 18:42 41.52876 -1.77024 37959 ft 499 kts 45°
2026-05-07 18:42 41.57532 -1.70149 37962 ft 499 kts 45°
2026-05-07 18:43 41.62185 -1.63262 37954 ft 499 kts 45°
2026-05-07 18:43 41.66836 -1.56362 37953 ft 499 kts 45°
2026-05-07 18:44 41.71478 -1.49460 37950 ft 500 kts 46°
2026-05-07 18:44 41.76131 -1.42522 37949 ft 501 kts 46°
2026-05-07 18:45 41.80769 -1.35584 37952 ft 499 kts 46°
2026-05-07 18:45 41.85398 -1.28640 37952 ft 500 kts 46°
2026-05-07 18:46 41.90030 -1.21677 37953 ft 500 kts 46°
2026-05-07 18:46 41.94659 -1.14699 37950 ft 500 kts 46°
2026-05-07 18:47 41.99264 -1.07744 37953 ft 497 kts 47°
2026-05-07 18:47 42.03853 -1.00795 37952 ft 497 kts 47°
2026-05-07 18:48 42.08441 -0.93832 37952 ft 497 kts 47°
2026-05-07 18:48 42.12998 -0.86899 37959 ft 497 kts 47°
2026-05-07 18:49 42.17580 -0.79911 37953 ft 497 kts 47°
2026-05-07 18:49 42.22151 -0.72927 37966 ft 495 kts 47°
2026-05-07 18:50 42.26700 -0.65955 37963 ft 496 kts 47°
2026-05-07 18:50 42.31256 -0.58955 37969 ft 496 kts 47°
2026-05-07 18:51 42.35801 -0.51959 37974 ft 495 kts 48°
2026-05-07 18:51 42.40344 -0.44948 37977 ft 496 kts 48°
2026-05-07 18:52 42.44888 -0.37919 37983 ft 496 kts 48°
2026-05-07 18:52 42.49427 -0.30882 37984 ft 496 kts 48°
2026-05-07 18:53 42.53961 -0.23834 37985 ft 496 kts 48°
2026-05-07 18:53 42.58490 -0.16777 37982 ft 496 kts 48°
2026-05-07 18:54 42.63011 -0.09716 37984 ft 495 kts 48°
2026-05-07 18:54 42.67516 -0.02663 37983 ft 494 kts 48°
2026-05-07 18:55 42.72029 0.04420 37978 ft 497 kts 48°
2026-05-07 18:55 42.76547 0.11529 37975 ft 496 kts 48°
2026-05-07 18:56 42.81057 0.18641 37949 ft 496 kts 49°
2026-05-07 18:56 42.85556 0.25753 37960 ft 495 kts 49°
2026-05-07 18:57 42.90052 0.32879 37958 ft 495 kts 48°
2026-05-07 18:57 42.94547 0.40019 37958 ft 498 kts 49°
2026-05-07 18:58 42.99060 0.47207 37957 ft 498 kts 49°
2026-05-07 18:58 43.03533 0.54349 37951 ft 496 kts 48°
2026-05-07 18:59 43.08014 0.61521 37949 ft 496 kts 48°
2026-05-07 18:59 43.12529 0.68762 37942 ft 496 kts 49°
2026-05-07 19:00 43.16975 0.75913 37945 ft 497 kts 49°
2026-05-07 19:00 43.21455 0.83135 37939 ft 498 kts 49°
2026-05-07 19:01 43.25920 0.90354 37936 ft 494 kts 49°
2026-05-07 19:01 43.30368 0.97559 37932 ft 495 kts 49°
2026-05-07 19:02 43.34816 1.04784 37936 ft 495 kts 49°
2026-05-07 19:02 43.39260 1.12020 37935 ft 495 kts 49°
2026-05-07 19:03 43.42982 1.18094 37944 ft 497 kts 49°
2026-05-07 19:03 43.47419 1.25353 37930 ft 495 kts 49°
2026-05-07 19:04 43.51853 1.32625 37933 ft 495 kts 49°
2026-05-07 19:04 43.56248 1.39850 37933 ft 495 kts 49°
2026-05-07 19:05 43.60706 1.47197 37945 ft 495 kts 49°
2026-05-07 19:05 43.65116 1.54484 37937 ft 495 kts 49°
2026-05-07 19:06 43.69503 1.61751 37937 ft 496 kts 49°
2026-05-07 19:06 43.76121 1.72748 37941 ft 496 kts 49°
2026-05-07 19:07 43.80524 1.80087 37941 ft 496 kts 49°
2026-05-07 19:07 43.84921 1.87435 37944 ft 494 kts 49°
2026-05-07 19:08 43.89311 1.94791 37945 ft 497 kts 49°
2026-05-07 19:08 43.93708 2.02177 37952 ft 497 kts 50°
2026-05-07 19:09 43.98100 2.09573 37949 ft 496 kts 50°
2026-05-07 19:09 44.02488 2.16981 37958 ft 496 kts 50°
2026-05-07 19:10 44.06860 2.24383 37957 ft 496 kts 50°
2026-05-07 19:10 44.11238 2.31813 37966 ft 497 kts 50°
2026-05-07 19:11 44.15623 2.39274 37965 ft 497 kts 50°
2026-05-07 19:11 44.19996 2.46734 37976 ft 497 kts 50°
2026-05-07 19:12 44.24366 2.54208 37969 ft 497 kts 50°
2026-05-07 19:12 44.28729 2.61691 37969 ft 497 kts 50°
2026-05-07 19:13 44.33089 2.69186 37965 ft 498 kts 50°
2026-05-07 19:13 44.37424 2.76659 37971 ft 499 kts 50°
2026-05-07 19:14 44.41786 2.84199 37974 ft 498 kts 50°
2026-05-07 19:14 44.46142 2.91747 37974 ft 498 kts 50°
2026-05-07 19:15 44.50486 2.99295 37978 ft 498 kts 50°
2026-05-07 19:15 44.54832 3.06866 37970 ft 499 kts 50°
2026-05-07 19:16 44.59185 3.14468 37983 ft 499 kts 51°
2026-05-07 19:16 44.63523 3.22065 37985 ft 499 kts 51°
2026-05-07 19:17 44.67836 3.29639 37985 ft 499 kts 51°
2026-05-07 19:17 44.72185 3.37295 37991 ft 499 kts 51°
2026-05-07 19:18 44.76510 3.44930 37990 ft 499 kts 51°
2026-05-07 19:18 44.80829 3.52574 37993 ft 499 kts 51°
2026-05-07 19:19 44.85146 3.60237 37993 ft 498 kts 51°
2026-05-07 19:19 44.89452 3.67900 37996 ft 499 kts 51°
2026-05-07 19:20 44.93753 3.75575 38007 ft 499 kts 51°
2026-05-07 19:20 44.98048 3.83260 37991 ft 499 kts 51°
2026-05-07 19:21 45.02343 3.90965 38019 ft 499 kts 51°
2026-05-07 19:21 45.06634 3.98684 38016 ft 499 kts 51°
2026-05-07 19:22 45.10918 4.06411 38011 ft 499 kts 51°
2026-05-07 19:22 45.15193 4.14143 38009 ft 498 kts 51°
2026-05-07 19:23 45.19460 4.21883 38007 ft 498 kts 51°
2026-05-07 19:23 45.23723 4.29636 38005 ft 499 kts 51°
2026-05-07 19:24 45.27983 4.37403 38005 ft 499 kts 51°
2026-05-07 19:24 45.32239 4.45186 38003 ft 497 kts 51°
2026-05-07 19:25 45.36477 4.52955 38000 ft 497 kts 51°
2026-05-07 19:25 45.40708 4.60736 38001 ft 497 kts 51°
2026-05-07 19:26 45.44935 4.68530 38005 ft 498 kts 51°
2026-05-07 19:26 45.49166 4.76351 38013 ft 498 kts 51°
2026-05-07 19:27 45.53354 4.84113 38006 ft 497 kts 52°
2026-05-07 19:27 45.57593 4.91995 38007 ft 497 kts 52°
2026-05-07 19:28 45.61771 4.99782 38005 ft 497 kts 52°
2026-05-07 19:28 45.65959 5.07612 37998 ft 497 kts 52°
2026-05-07 19:29 45.70152 5.15472 37996 ft 497 kts 52°
2026-05-07 19:29 45.74347 5.23357 37993 ft 497 kts 52°
2026-05-07 19:30 45.78530 5.31242 37993 ft 497 kts 52°
2026-05-07 19:30 45.82712 5.39146 37994 ft 497 kts 52°
2026-05-07 19:31 45.86884 5.47056 37995 ft 497 kts 52°
2026-05-07 19:31 45.91050 5.54975 37994 ft 498 kts 52°
2026-05-07 19:32 45.95212 5.62908 38000 ft 497 kts 52°
2026-05-07 19:32 45.99371 5.70860 37997 ft 498 kts 52°
2026-05-07 19:33 46.03527 5.78827 38005 ft 498 kts 52°
2026-05-07 19:33 46.07674 5.86800 37995 ft 498 kts 52°
2026-05-07 19:34 46.11818 5.94790 38000 ft 498 kts 52°
2026-05-07 19:34 46.15962 6.02803 37993 ft 498 kts 52°
2026-05-07 19:35 46.20089 6.10806 37994 ft 498 kts 52°
2026-05-07 19:35 46.24219 6.18836 37993 ft 498 kts 52°
2026-05-07 19:36 46.28342 6.26877 37995 ft 498 kts 52°
2026-05-07 19:36 46.32459 6.34929 38001 ft 498 kts 52°
2026-05-07 19:37 46.36540 6.42934 38000 ft 498 kts 52°
2026-05-07 19:37 46.40655 6.51030 38010 ft 499 kts 52°
2026-05-07 19:38 46.44767 6.59140 38016 ft 499 kts 52°
2026-05-07 19:38 46.48867 6.67252 38021 ft 499 kts 52°
2026-05-07 19:39 46.52965 6.75383 38020 ft 499 kts 52°
2026-05-07 19:39 46.56370 6.82158 38025 ft 499 kts 52°
2026-05-07 19:40 46.61149 6.91695 38020 ft 501 kts 52°
2026-05-07 19:40 46.65241 6.99887 38023 ft 501 kts 52°
2026-05-07 19:41 46.69328 7.08091 38026 ft 500 kts 52°
2026-05-07 19:41 46.73412 7.16316 38026 ft 501 kts 53°
2026-05-07 19:42 46.77484 7.24540 38024 ft 500 kts 53°
2026-05-07 19:42 46.81553 7.32781 38025 ft 500 kts 53°
2026-05-07 19:43 46.85615 7.41034 38022 ft 501 kts 52°
2026-05-07 19:43 46.89677 7.49310 38019 ft 501 kts 53°
2026-05-07 19:44 46.93730 7.57594 38053 ft 500 kts 53°
2026-05-07 19:44 46.97766 7.65868 38037 ft 499 kts 53°
2026-05-07 19:45 47.01799 7.74160 38036 ft 500 kts 53°
2026-05-07 19:45 47.05822 7.82455 38038 ft 499 kts 53°
2026-05-07 19:46 47.09847 7.90769 38034 ft 500 kts 53°
2026-05-07 19:46 47.13857 7.99069 38040 ft 496 kts 53°
2026-05-07 19:47 47.17846 8.07352 38039 ft 497 kts 53°
2026-05-07 19:47 47.21832 8.15652 38037 ft 497 kts 53°
2026-05-07 19:48 47.25777 8.23891 38043 ft 497 kts 53°
2026-05-07 19:48 47.29801 8.32193 38044 ft 497 kts 48°
2026-05-07 19:49 47.32229 8.35794 38037 ft 494 kts 36°
2026-05-07 19:49 47.35062 8.38604 38043 ft 489 kts 24°
2026-05-07 19:49 47.41358 8.42140 38046 ft 484 kts 15°
2026-05-07 19:50 47.46596 8.45103 38048 ft 486 kts 19°
2026-05-07 19:50 47.52754 8.49245 38058 ft 485 kts 22°
2026-05-07 19:51 47.58839 8.53577 38059 ft 486 kts 22°
2026-05-07 19:51 47.64925 8.57933 38048 ft 486 kts 22°
2026-05-07 19:52 47.71017 8.62295 38044 ft 486 kts 22°
2026-05-07 19:52 47.77099 8.66658 38053 ft 486 kts 22°
2026-05-07 19:53 47.83187 8.71036 38055 ft 486 kts 22°
2026-05-07 19:53 47.89263 8.75418 38073 ft 486 kts 22°
2026-05-07 19:54 47.95348 8.79817 38055 ft 486 kts 22°
2026-05-07 19:54 48.01424 8.84221 38062 ft 486 kts 23°
2026-05-07 19:55 48.07465 8.88612 38060 ft 485 kts 23°
2026-05-07 19:55 48.13534 8.93034 38066 ft 484 kts 23°
2026-05-07 19:56 48.19870 8.96317 38067 ft 476 kts
2026-05-07 19:56 48.26405 8.97110 38065 ft 474 kts 360°
2026-05-07 19:57 48.32983 8.97846 38062 ft 474 kts
2026-05-07 19:57 48.39556 8.98790 38064 ft 474 kts
2026-05-07 19:58 48.46117 8.99858 38066 ft 474 kts